Regional Weather Roundup
Issued by NWS

Home | Current Version | Previous Version | Graphics & Text | Print | Product List | Glossary On
Versions: 1 2 3 4 5 6 7 8 9 10 11 12 13 14 15 16 17 18 19 20 21 22 23 24 25 26 27 28 29 30 31 32 33 34 35 36 37 38 39 40 41 42 43 44 45 46 47 48 49 50
000
ASUS45 KSLC 052010
RWRUT

UTAH REGIONAL WEATHER ROUNDUP
NATIONAL WEATHER SERVICE SALT LAKE CITY UT
200 PM MDT TUE MAY 05 2015

UTZ001>011-023>025-052100-

NORTHERN UTAH

CITY           SKY/WX    TMP DP  RH WIND       PRES   REMARKS
DUGWAY         PTSUNNY   66 N/A N/A SW1       29.82
HILL AFB       PTSUNNY   62  51  66 SE10      29.83F
LOGAN          SUNNY     69  43  38 W9        29.78F
OGDEN          CLOUDY    66  47  50 SW8       29.81F
PROVO AIRPORT  PTSUNNY   63  46  55 SW10G17   29.85S
SALT LAKE CITY CLOUDY    62  45  53 W6        29.83F
VERNAL         CLOUDY    68  37  32 CALM      29.77F
WENDOVER       MOSUNNY   73  37  27 SE9       29.79F
HEBER CITY     CLOUDY    61  41  48 MISG        N/A
WEST JORDAN    CLOUDY    55  54  94 S6        29.85F

$$

UTZ012>022-026-027-052100-

SOUTHERN/CENTRAL UTAH

CITY           SKY/WX    TMP DP  RH WIND       PRES   REMARKS
BLANDING       CLOUDY    49  48  93 W6        29.98S
BRYCE CANYON   CLOUDY    49  40  71 SW18      29.96F
CEDAR CITY     CLOUDY    61  47  59 S9        29.90F
DELTA          PTSUNNY   64  43  46 CALM      29.84F
HANKSVILLE     CLOUDY    61  48  63 SE5       29.84F
MILFORD        MOSUNNY   66  46  48 SW17G25   29.85F
MOAB/CYNLANDS  MOSUNNY   62  48  60 VRB7      29.80F
PRICE          CLOUDY    65  42  43 NW10      29.84F
ST GEORGE      CLOUDY    70  46  43 NW12      29.86F
KANAB          PTSUNNY   66  43  42 SW14G21   29.92F

$$

REGIONAL REPORTS     COLORADO/ARIZONA

CITY           SKY/WX    TMP DP  RH WIND       PRES   REMARKS
CRAIG, CO      PTSUNNY   67  40  37 NE3       29.80F
GRAND JUNCTION CLOUDY    62  47  57 E10G17    29.80F
RIFLE          CLOUDY    62  44  51 W24G30    29.78F
MONTROSE       LGT RAIN  55  47  74 W3        29.87F
CORTEZ         LGT RAIN  51  47  86 CALM      29.92S
PAGE, AZ       PTSUNNY   70  44  39 VRB5      29.83F
GRAND CANYON   CLOUDY    53  41  63 W10       29.99F
KINGMAN        SUNNY     73  45  36 SW17G23   29.91F
FLAGSTAFF      LGT RAIN  47  45  93 SW10      30.02S FOG

$$

REGIONAL REPORTS    NEVADA/IDAHO/WYOMING

CITY           SKY/WX    TMP DP  RH WIND       PRES   REMARKS
LAS VEGAS, NV  MOSUNNY   81  35  19 S9G20     29.77F
ELY            TSTM      62  32  32 VRB6      29.90F
ELKO           MOSUNNY   69  33  26 SW10      29.83F
POCATELLO, ID  MOSUNNY   70  38  31 SW17G25   29.79F
BURLEY         SUNNY     68  39  34 W13G21    29.79F
EVANSTON, WY   PTSUNNY   58  40  51 VRB3      29.89F
ROCK SPRINGS   PTSUNNY   64  33  31 VRB6      29.85F
KEMMERER       CLOUDY    57  36  44 CALM      29.89F

$$


USA.gov is the U.S. government's official web portal to all federal, state and local government web resources and services.